Track FLOCK 3P 70 now! 10-day predictions FLOCK 3P 70 is classified as:
1 41980U 17008AJ 22141.18929873 .00053340 00000-0 15307-2 0 9998 2 41980 97.2816 209.0179 0004710 322.7100 37.3816 15.35673206292753